This is the latest recevied weather packets stored in our database for station/object KQ4OSL. If no packets are shown the sender has not sent any weather packets the latest 10 day(s).
| Time | Temp. | Humidity | Pressure | Rain* | Wind** | Luminosity | Snow |
|---|---|---|---|---|---|---|---|
| 1777481482 | 24.44° C | 78% | 1015.5 hPa | 0 mm | - | 668 W/m² | - |
| 1777481178 | 24.44° C | 77% | 1015.5 hPa | 0 mm | - | 511 W/m² | - |
| 1777480875 | 24.44° C | 78% | 1015.5 hPa | 0 mm | - | 756 W/m² | - |
| 1777480571 | 23.89° C | 78% | 1015.3 hPa | 0 mm | - | 701 W/m² | - |
| 1777480269 | 23.89° C | 78% | 1015.4 hPa | 0 mm | - | 723 W/m² | - |
| 1777479964 | 23.89° C | 79% | 1015.5 hPa | 0 mm | - | 697 W/m² | - |
| 1777479661 | 23.89° C | 81% | 1015.3 hPa | 0 mm | - | 700 W/m² | - |
| 1777479359 | 23.89° C | 83% | 1015.6 hPa | 0 mm | - | 724 W/m² | - |
| 1777479055 | 23.33° C | 83% | 1015.7 hPa | 0 mm | - | 697 W/m² | - |
| 1777478752 | 22.78° C | 83% | 1015.7 hPa | 0 mm | - | 706 W/m² | - |
| 1777478448 | 22.78° C | 84% | 1015.9 hPa | 0 mm | - | 707 W/m² | - |
| 1777478145 | 23.33° C | 83% | 1015.9 hPa | 0 mm | - | 506 W/m² | - |
| 1777477842 | 23.33° C | 82% | 1016.2 hPa | 0 mm | - | 664 W/m² | - |
| 1777477537 | 22.78° C | 83% | 1016.1 hPa | 0 mm | - | 699 W/m² | - |
| 1777477234 | 22.78° C | 82% | 1015.9 hPa | 0 mm | - | 563 W/m² | - |
| 1777476930 | 22.78° C | 81% | 1015.7 hPa | 0 mm | - | 634 W/m² | - |
| 1777476629 | 22.78° C | 84% | 1015.8 hPa | 0 mm | - | 637 W/m² | - |
| 1777476325 | 22.78° C | 84% | 1015.9 hPa | 0 mm | - | 614 W/m² | - |
| 1777476020 | 22.22° C | 84% | 1015.8 hPa | 0 mm | - | 634 W/m² | - |
| 1777475716 | 21.67° C | 84% | 1016.1 hPa | 0 mm | - | 632 W/m² | - |
| 1777475413 | 21.67° C | 85% | 1016 hPa | 0 mm | - | 624 W/m² | - |
| 1777475108 | 21.67° C | 86% | 1015.9 hPa | 0 mm | - | 609 W/m² | - |
| 1777474805 | 21.67° C | 87% | 1016 hPa | 0 mm | - | 599 W/m² | - |
| 1777474501 | 21.67° C | 89% | 1015.9 hPa | 0 mm | - | 594 W/m² | - |
| 1777474197 | 21.11° C | 89% | 1015.8 hPa | 0 mm | - | 590 W/m² | - |
* Rain latest hour (hover to see other rain measurements)
** Current wind speed in m/s (hover to see current wind gust speed)